Regional Weather Roundup
Issued by NWS

Home | Current Version | Previous Version | Text Only | Print | Product List | Glossary On
Versions: 1 2 3 4 5 6 7 8 9 10 11 12 13 14 15 16 17 18 19 20 21 22 23 24 25 26 27 28 29 30 31 32 33 34 35 36 37 38 39 40 41 42 43 44 45 46 47 48 49 50
000
ASUS42 KKEY 050310
RWRKEY

FLORIDA REGIONAL WEATHER ROUNDUP FOR THE FLORIDA KEYS
NATIONAL WEATHER SERVICE KEY WEST FLORIDA
1100 PM EDT WED MAY 04 2016

...SOUTH FLORIDA AND THE KEYS...

CITY           SKY/WX    TMP DP  RH WIND       PRES   REMARKS
FORT MYERS     CLEAR     72  68  87 NW13      29.74R
SW REGIONAL AP CLEAR     72  67  84 NW9G17    29.74R
NAPLES         PTCLDY    76  66  71 NW18G30   29.75R
MIAMI          RAIN      72  69  90 SW5       29.73R FOG
WEST KENDALL   CLOUDY    72  72 100 SE8       29.72F
HOMESTEAD      CLOUDY    74  72  92 SW12      29.72F
MARATHON       CLOUDY    79  71  76 SW15G28   29.74F
BOCA CHICA NAS CLOUDY    77  70  79 SW24G36   29.77F
KEY WEST INTL  CLOUDY    76  72  87 SW25G36   29.76F

...INTERNATIONAL WEATHER...

CITY           SKY/WX    TMP DP  RH WIND       PRES   REMARKS
NASSAU BAHAMAS MOCLDY    79  79 100 S5        29.80S
CANCUN MEXICO  MOCLDY    77  75  94 NW5       29.89R
COZUMEL MEXICO PTCLDY    75  73  94 N14       29.89R

ADJACENT COASTAL WATERS...

STATION/POSITION TIME  SKY/WX   TEMP    WIND        PRES    WAVE
                                AIR SEA DIR/SP/G            HT/PER
                 (UTC)          (F)     (DEG/KT/KT) (MB)    (FT/S)
PULASKI SHOAL LI 0300            78     330/ 19/ 21 1008.7R
SAND KEY         0250            79     230/ 25/ 29 1008.2F
SOMBRERO KEY     NOT AVBL
LONG KEY         0200            79 82  230/ 24/ 26 1007.8R
MOLASSES REEF    NOT AVBL
FOWEY ROCKS      NOT AVBL

$$



USA.gov is the U.S. government's official web portal to all federal, state and local government web resources and services.